Newberry, SC

8:24 AM EST on December 16, 2017 (GMT -0500)
Newberry

Weather History for KEOE - November, 2012

Change the Weather History Date:

Sunday, November 18, 2012

  Actual Average (KFDW) Record (KFDW)
Temperature  
Mean Temperature 50 °F -  
Max Temperature 59 °F 64 °F 78 °F (2013)
Min Temperature 42 °F 39 °F 28 °F (2014)
Degree Days  
Heating Degree Days 14    
Moisture  
Dew Point 39 °F    
Average Humidity 62    
Maximum Humidity 87    
Minimum Humidity 47    
Precipitation  
Precipitation 0.00 in - - ()
Sea Level Pressure  
Sea Level Pressure 30.39 in    
Wind  
Wind Speed 12 mph (NNE)    
Max Wind Speed 20 mph    
Max Gust Speed 25 mph    
Visibility 10 miles    
Events Rain    
Averages and records for this station are not official NWS values.
T = Trace of Precipitation, MM = Missing Value Source: NWS Daily Summary

Daily Weather History Graph

Daily Weather History Graph

Search for Another Location

Airport or City:

Trip Planner

Search our weather history database for the weather conditions in past years. The results will help you decide how hot, cold, wet, or windy it might be!

Date:

Astronomy

Nov. 18, 2012 Rise Set
Actual Time 7:02 AM EST 5:20 PM EST
Civil Twilight 6:36 AM EST 5:47 PM EST
Nautical Twilight 6:05 AM EST 6:17 PM EST
Astronomical Twilight 5:35 AM EST 6:47 PM EST
Moon 11:31 AM EST (11/18) 10:34 PM EST (11/18)
Length of Visible Light 11h 11m
Length of Day
10h 17m
Waxing Crescent, 30% of the Moon is Illuminated
Nov 18
Waxing Crescent
Nov 20
First Quarter
Nov 28
Full
Dec 6
Last Quarter
Dec 13
New

Hourly Weather History & Observations

Time (EST) Temp. Windchill Dew Point Humidity Pressure Visibility Wind Dir Wind Speed Gust Speed Precip Events Conditions
12:15 AM 50.0 °F - 30.2 °F 47% 30.43 in 10.0 mi NE 9.2 mph - N/A   Overcast
12:35 AM 50.0 °F - 30.2 °F 47% 30.43 in 10.0 mi NE 11.5 mph 18.4 mph N/A   Overcast
12:55 AM 50.0 °F - 32.0 °F 50% 30.42 in 10.0 mi NNE 12.7 mph 19.6 mph N/A   Overcast
1:15 AM 50.0 °F - 32.0 °F 50% 30.42 in 10.0 mi NNE 10.4 mph - N/A   Overcast
1:35 AM 50.0 °F - 32.0 °F 50% 30.41 in 10.0 mi NE 15.0 mph 20.7 mph N/A   Overcast
1:55 AM 50.0 °F - 32.0 °F 50% 30.41 in 10.0 mi NNE 12.7 mph - N/A   Overcast
2:15 AM 50.0 °F - 32.0 °F 50% 30.41 in 10.0 mi NNE 11.5 mph 18.4 mph N/A   Overcast
2:35 AM 50.0 °F - 33.8 °F 54% 30.41 in 10.0 mi NE 15.0 mph - N/A   Overcast
2:55 AM 50.0 °F - 33.8 °F 54% 30.40 in 10.0 mi NE 13.8 mph 20.7 mph N/A   Overcast
3:15 AM 48.2 °F - 33.8 °F 58% 30.41 in 10.0 mi NNE 10.4 mph 18.4 mph N/A   Overcast
3:35 AM 48.2 °F - 33.8 °F 58% 30.41 in 10.0 mi NNE 11.5 mph 16.1 mph N/A   Overcast
3:55 AM 46.4 °F 41.1 °F 33.8 °F 62% 30.41 in 10.0 mi NNE 11.5 mph - N/A   Mostly Cloudy
4:15 AM 46.4 °F 41.1 °F 33.8 °F 62% 30.41 in 10.0 mi NNE 11.5 mph 16.1 mph N/A   Overcast
4:35 AM 46.4 °F 41.1 °F 33.8 °F 62% 30.42 in 10.0 mi NNE 11.5 mph - N/A   Overcast
4:55 AM 46.4 °F 40.7 °F 33.8 °F 62% 30.43 in 10.0 mi NNE 12.7 mph - N/A   Overcast
5:15 AM 46.4 °F 40.1 °F 33.8 °F 62% 30.43 in 10.0 mi NNE 15.0 mph 23.0 mph N/A   Overcast
5:35 AM 46.4 °F 39.8 °F 33.8 °F 62% 30.43 in 10.0 mi NNE 16.1 mph - N/A   Overcast
5:55 AM 46.4 °F 40.7 °F 33.8 °F 62% 30.43 in 10.0 mi NNE 12.7 mph 17.3 mph N/A   Overcast
6:15 AM 46.4 °F 41.5 °F 35.6 °F 66% 30.43 in 10.0 mi North 10.4 mph 16.1 mph N/A   Overcast
6:35 AM 44.6 °F 39.2 °F 33.8 °F 66% 30.43 in 10.0 mi North 10.4 mph - N/A   Overcast
6:55 AM 42.8 °F 36.6 °F 33.8 °F 70% 30.43 in 10.0 mi NNE 11.5 mph - N/A   Scattered Clouds
7:15 AM 42.8 °F 36.2 °F 33.8 °F 70% 30.43 in 10.0 mi NNE 12.7 mph - N/A   Clear
7:35 AM 42.8 °F 37.0 °F 33.8 °F 70% 30.42 in 10.0 mi NNE 10.4 mph - N/A   Clear
7:55 AM 44.6 °F 38.8 °F 33.8 °F 66% 30.43 in 10.0 mi NNE 11.5 mph - N/A   Clear
8:15 AM 44.6 °F 38.8 °F 33.8 °F 66% 30.44 in 10.0 mi North 11.5 mph - N/A   Mostly Cloudy
8:35 AM 46.4 °F 40.4 °F 35.6 °F 66% 30.44 in 10.0 mi NNE 13.8 mph 19.6 mph N/A   Overcast
8:55 AM 46.4 °F 40.4 °F 35.6 °F 66% 30.44 in 10.0 mi NNE 13.8 mph 20.7 mph N/A   Overcast
9:15 AM 48.2 °F - 35.6 °F 62% 30.44 in 10.0 mi NNE 12.7 mph 20.7 mph N/A   Mostly Cloudy
9:35 AM 48.2 °F - 37.4 °F 66% 30.44 in 10.0 mi NNE 16.1 mph 24.2 mph N/A   Mostly Cloudy
9:55 AM 50.0 °F - 37.4 °F 62% 30.44 in 10.0 mi NNE 13.8 mph 19.6 mph N/A   Overcast
10:15 AM 51.8 °F - 39.2 °F 62% 30.43 in 10.0 mi North 11.5 mph - N/A   Mostly Cloudy
10:35 AM 51.8 °F - 39.2 °F 62% 30.43 in 10.0 mi NNE 12.7 mph - N/A   Mostly Cloudy
10:55 AM 51.8 °F - 41.0 °F 67% 30.42 in 10.0 mi NNE 15.0 mph - N/A   Scattered Clouds
11:15 AM 53.6 °F - 41.0 °F 62% 30.42 in 10.0 mi North 17.3 mph 23.0 mph N/A   Scattered Clouds
11:35 AM 53.6 °F - 41.0 °F 62% 30.41 in 10.0 mi North 12.7 mph - N/A   Scattered Clouds
11:55 AM 55.4 °F - 42.8 °F 63% 30.40 in 10.0 mi NNE 10.4 mph - N/A   Mostly Cloudy
12:15 PM 55.4 °F - 42.8 °F 63% 30.39 in 10.0 mi NNE 13.8 mph 19.6 mph N/A   Overcast
12:35 PM 55.4 °F - 42.8 °F 63% 30.38 in 10.0 mi NE 9.2 mph - N/A   Mostly Cloudy
12:55 PM 57.2 °F - 42.8 °F 59% 30.38 in 10.0 mi NNE 15.0 mph 18.4 mph N/A   Scattered Clouds
1:15 PM 57.2 °F - 42.8 °F 59% 30.37 in 10.0 mi NE 12.7 mph - N/A   Mostly Cloudy
1:35 PM 57.2 °F - 42.8 °F 59% 30.35 in 10.0 mi NE 13.8 mph 18.4 mph N/A   Scattered Clouds
1:55 PM 59.0 °F - 42.8 °F 55% 30.34 in 10.0 mi NNE 13.8 mph 17.3 mph N/A   Clear
2:15 PM 59.0 °F - 42.8 °F 55% 30.34 in 10.0 mi NNE 15.0 mph - N/A   Clear
2:35 PM 59.0 °F - 42.8 °F 55% 30.33 in 10.0 mi NNE 11.5 mph 20.7 mph N/A   Clear
2:55 PM 59.0 °F - 42.8 °F 55% 30.34 in 10.0 mi NNE 13.8 mph 23.0 mph N/A   Clear
3:15 PM 59.0 °F - 44.6 °F 59% 30.34 in 10.0 mi NNE 16.1 mph - N/A   Clear
3:35 PM 59.0 °F - 44.6 °F 59% 30.34 in 10.0 mi NNE 12.7 mph 18.4 mph N/A   Clear
3:55 PM 59.0 °F - 44.6 °F 59% 30.33 in 10.0 mi North 13.8 mph - N/A   Clear
4:15 PM 59.0 °F - 44.6 °F 59% 30.34 in 10.0 mi North 17.3 mph 23.0 mph N/A   Clear
4:35 PM 59.0 °F - 44.6 °F 59% 30.34 in 10.0 mi North 10.4 mph - N/A   Scattered Clouds
4:55 PM 59.0 °F - 44.6 °F 59% 30.34 in 10.0 mi North 12.7 mph - N/A   Mostly Cloudy
5:15 PM 59.0 °F - 44.6 °F 59% 30.34 in 10.0 mi North 12.7 mph 18.4 mph N/A   Overcast
5:35 PM 57.2 °F - 44.6 °F 63% 30.34 in 10.0 mi North 11.5 mph 20.7 mph N/A   Overcast
5:55 PM 57.2 °F - 44.6 °F 63% 30.34 in 10.0 mi North 9.2 mph - N/A   Overcast
6:15 PM 57.2 °F - 44.6 °F 63% 30.34 in 10.0 mi NNE 12.7 mph - N/A   Overcast
6:35 PM 57.2 °F - 42.8 °F 59% 30.34 in 10.0 mi NNE 11.5 mph 17.3 mph N/A   Overcast
6:55 PM 55.4 °F - 42.8 °F 63% 30.34 in 10.0 mi NNE 10.4 mph 17.3 mph N/A   Overcast
7:15 PM 55.4 °F - 42.8 °F 63% 30.34 in 10.0 mi North 11.5 mph 19.6 mph N/A   Overcast
7:35 PM 55.4 °F - 42.8 °F 63% 30.34 in 10.0 mi North 11.5 mph 19.6 mph N/A   Overcast
7:55 PM 55.4 °F - 42.8 °F 63% 30.35 in 10.0 mi NNE 13.8 mph 20.7 mph N/A   Overcast
8:15 PM 55.4 °F - 42.8 °F 63% 30.35 in 10.0 mi NNE 16.1 mph 23.0 mph N/A   Overcast
8:35 PM 55.4 °F - 42.8 °F 63% 30.35 in 10.0 mi NNE 12.7 mph 20.7 mph N/A   Overcast
8:55 PM 55.4 °F - 42.8 °F 63% 30.36 in 10.0 mi NNE 13.8 mph 20.7 mph N/A   Overcast
9:15 PM 55.4 °F - 42.8 °F 63% 30.36 in 10.0 mi NNE 18.4 mph 24.2 mph N/A   Overcast
9:35 PM 55.4 °F - 42.8 °F 63% 30.36 in 10.0 mi NNE 15.0 mph 21.9 mph N/A   Overcast
9:55 PM 55.4 °F - 42.8 °F 63% 30.36 in 10.0 mi NNE 15.0 mph 21.9 mph N/A   Overcast
10:15 PM 53.6 °F - 42.8 °F 67% 30.37 in 10.0 mi NNE 12.7 mph 20.7 mph N/A Rain Light Rain
10:35 PM 51.8 °F - 44.6 °F 76% 30.36 in 7.0 mi NNE 19.6 mph 25.3 mph N/A Rain Light Rain
10:55 PM 50.0 °F - 46.4 °F 87% 30.37 in 10.0 mi NNE 12.7 mph - N/A   Overcast
11:15 PM 50.0 °F - 46.4 °F 87% 30.37 in 10.0 mi NNE 12.7 mph - N/A   Overcast
11:35 PM 50.0 °F - 46.4 °F 87% 30.36 in 10.0 mi NNE 11.5 mph - N/A   Overcast
11:55 PM 50.0 °F - 46.4 °F 87% 30.35 in 10.0 mi NNE 12.7 mph 19.6 mph N/A   Overcast